Temp
61 61 61 61 60 60 60 61 61 61 61 61 61 61 61 61 60 57 61 76 73 73 74 76 74 74 70 66 66 65 57 52 57 60 69 73 70 77 83 78 82 80 78 80 79
60 60 60 60 60 60 60 60 60 61 61 61 61 61 60 60 54 59 74 74 73 74 74 71 69 71 66 64 65 62 54 59 67 67 70 72 70 77 78 77 77 78 80 80 80
60 60 60 60 60 60 60 60 60 61 61 61 60 60 60 58 60 73 77 74 74 74 74 72 71 68 59 60 62 59 59 65 72 73 69 71 74 79 75 69 74 75 78 77 78
60 60 60 60 60 60 59 59 60 61 61 60 60 60 61 56 54 74 77 75 76 75 72 69 65 59 56 57 62 57 68 67 72 72 67 69 74 72 76 78 83 80 83 79 76
59 59 59 59 59 59 59 59 59 60 60 60 60 61 57 59 66 77 77 76 75 74 70 66 62 59 55 59 64 59 65 70 72 71 69 70 74 72 75 81 81 82 82 80 76
58 59 59 59 59 59 58 58 58 58 59 60 61 61 58 56 77 78 77 73 75 71 70 68 68 69 62 60 60 66 66 69 70 70 67 69 72 74 79 78 79 80 78 80 80
58 58 58 58 58 58 58 58 58 58 59 61 62 64 60 66 78 76 76 73 75 78 74 74 73 68 65 63 64 66 64 67 68 68 71 70 72 71 76 77 76 78 80 81 80
58 58 58 58 58 58 58 58 58 59 60 61 63 60 60 75 73 74 73 77 80 79 78 80 76 69 64 66 67 62 57 55 67 70 75 70 62 76 74 75 73 77 80 81 80
58 57 57 58 58 58 58 57 59 62 62 63 58 58 62 78 77 81 78 77 79 79 78 89 74 65 67 57 54 56 52 54 63 69 68 64 64 74 74 74 73 74 79 81 81
58 57 57 57 58 57 57 57 60 61 63 67 70 60 68 74 80 83 79 81 77 76 76 73 63 59 56 54 48 52 55 56 57 67 66 63 65 70 72 72 71 72 75 80 80
58 57 56 57 57 57 53 58 61 59 59 62 65 67 73 81 83 79 80 78 76 71 59 63 59 53 57 58 60 58 56 56 64 68 64 61 62 69 71 70 71 69 73 76 80
57 57 57 56 57 56 51 62 60 64 57 68 68 68 74 78 71 77 80 70 66 59 62 60 55 64 66 65 62 61 58 57 63 67 64 63 64 67 69 70 72 74 71 73 76
56 56 56 56 56 56 55 64 66 60 53 63 68 68 70 74 70 72 78 70 63 58 57 55 64 71 68 64 62 59 57 59 60 64 63 61 59 61 68 70 70 73 73 70 74
56 56 56 55 58 51 60 64 62 61 47 62 67 73 73 73 69 79 80 74 63 61 60 59 67 67 64 63 64 54 66 64 64 58 50 58 48 57 63 66 69 70 73 68 71
55 56 55 55 47 51 63 61 62 63 43 68 69 78 71 71 72 74 78 74 62 63 61 60 64 63 63 65 66 63 67 62 61 53 50 56 49 56 62 65 67 69 70 69 71
55 56 55 52 45 52 57 57 62 50 44 64 71 68 65 69 73 72 72 74 72 63 61 62 68 67 67 71 68 70 64 58 52 49 44 51 50 52 57 61 66 69 74 74 71
55 55 53 55 54 54 55 59 48 44 65 63 65 66 64 64 67 68 65 60 57 50 51 60 61 69 70 61 65 62 52 43 43 41 44 52 50 54 63 67 67 69 71 71 72
53 53 50 53 48 54 56 53 39 58 60 69 68 65 62 66 65 66 62 58 60 57 52 51 53 63 71 62 60 55 53 44 38 39 44 52 48 58 67 69 69 70 69 71 69
51 45 46 53 54 53 53 43 48 56 65 64 64 57 57 63 61 61 58 58 61 62 54 49 55 69 70 67 65 56 51 53 47 43 42 46 55 65 66 68 69 71 71 71 73
42 41 48 57 57 55 49 46 52 65 67 64 54 58 52 57 58 56 57 64 64 65 62 56 51 63 69 68 66 62 62 49 45 39 38 45 47 51 60 64 66 67 67 68 71
42 47 59 59 58 51 43 45 57 69 68 62 56 56 56 55 55 54 58 63 66 66 63 54 53 57 62 58 55 57 53 50 48 45 40 39 46 55 58 62 64 65 65 65 65
41 46 59 60 49 41 44 53 60 65 67 64 62 58 55 55 55 55 57 60 66 65 58 55 50 47 53 61 63 59 53 49 43 44 43 42 45 60 60 62 61 62 62 63 64
41 44 58 59 43 42 49 58 62 62 61 61 59 60 57 52 49 55 58 65 64 61 55 56 48 42 48 54 58 55 55 53 49 44 43 41 45 64 62 60 60 60 62 64 65
42 45 50 50 47 46 46 52 55 64 63 63 60 60 54 51 53 51 56 63 64 61 61 57 46 47 42 48 51 51 55 56 49 41 44 46 50 60 59 56 58 60 61 62 64
40 44 47 44 47 47 48 52 53 55 60 61 56 57 53 45 48 47 53 56 62 60 56 52 46 46 51 54 55 54 55 55 50 51 45 51 50 55 56 56 57 60 63 64 64
42 43 45 45 48 48 47 48 54 57 56 55 53 57 54 47 49 47 51 49 49 55 50 50 45 46 47 54 53 51 56 57 54 53 51 52 50 55 57 59 59 59 61 61 63
42 44 46 45 46 46 46 51 55 56 57 58 57 53 51 54 55 53 54 54 53 49 49 47 44 42 40 50 50 44 52 53 53 53 50 44 48 54 54 56 55 56 58 59 61
MSLP
1021.41 1021.05 1020.67 1020.32 1019.96 1019.45 1019.08 1018.78 1018.49 1018.11 1017.57 1017.07 1016.64 1016.16 1015.78 1015.41 1014.70 1014.34 1013.31 1010.50 1010.26 1010.17 1010.35 1010.44 1010.39 1010.43 1010.66 1011.02 1011.21 1011.65 1012.70 1012.90 1012.26 1011.02 1009.27 1007.71 1007.89 1007.39 1007.14 1007.50 1007.63 1007.51 1007.30 1007.37 1008.51
1021.36 1021.11 1020.71 1020.21 1019.86 1019.41 1019.12 1018.78 1018.42 1017.97 1017.45 1016.88 1016.45 1016.02 1015.65 1015.38 1014.81 1013.10 1010.08 1009.83 1009.99 1010.16 1010.34 1010.52 1010.61 1010.51 1010.90 1011.10 1011.33 1011.79 1012.54 1012.01 1010.89 1009.84 1009.08 1008.16 1007.87 1007.65 1007.29 1007.17 1007.27 1007.44 1007.33 1007.61 1008.79
1021.25 1021.19 1020.64 1020.22 1019.83 1019.35 1018.99 1018.64 1018.27 1017.76 1017.26 1016.73 1016.31 1015.88 1015.52 1015.40 1014.32 1010.82 1009.46 1009.57 1009.90 1010.18 1010.25 1010.41 1010.50 1010.54 1010.93 1011.07 1011.05 1011.42 1011.62 1010.88 1009.94 1009.30 1008.99 1008.17 1007.05 1007.19 1007.02 1007.27 1006.77 1006.71 1007.38 1007.98 1008.70
1021.49 1021.24 1020.66 1020.21 1019.79 1019.28 1018.77 1018.46 1018.01 1017.46 1017.08 1016.61 1016.08 1015.70 1015.42 1015.19 1013.17 1009.95 1009.55 1009.68 1009.93 1010.11 1010.32 1010.34 1010.52 1010.76 1010.99 1011.05 1010.83 1011.16 1010.42 1010.19 1009.46 1008.57 1008.62 1007.93 1006.83 1006.61 1006.64 1005.98 1005.47 1006.43 1006.74 1007.43 1008.27
1021.69 1021.16 1020.64 1020.15 1019.78 1019.12 1018.55 1018.24 1017.69 1017.16 1016.78 1016.39 1015.95 1015.63 1015.31 1014.36 1012.02 1009.66 1009.85 1010.03 1010.11 1010.28 1010.36 1010.45 1010.62 1010.89 1011.00 1010.88 1010.68 1010.64 1010.01 1009.52 1008.93 1008.34 1008.05 1007.66 1006.84 1006.52 1006.08 1005.50 1005.38 1006.41 1007.11 1007.60 1007.72
1021.58 1021.07 1020.60 1020.09 1019.63 1018.89 1018.32 1017.90 1017.31 1016.81 1016.46 1016.17 1015.80 1015.65 1015.23 1013.18 1009.97 1009.72 1010.04 1010.30 1010.29 1010.32 1010.28 1010.33 1010.33 1010.41 1010.65 1010.66 1010.73 1010.18 1009.85 1009.29 1008.40 1007.95 1007.50 1006.98 1006.10 1006.25 1005.20 1005.25 1005.78 1006.23 1006.78 1007.20 1007.26
1021.58 1021.15 1020.55 1020.09 1019.39 1018.66 1018.03 1017.42 1016.82 1016.33 1016.09 1015.81 1015.62 1015.41 1014.66 1011.67 1009.85 1009.86 1010.11 1010.02 1009.95 1009.97 1010.01 1009.93 1009.93 1010.28 1010.41 1010.55 1010.41 1010.21 1010.04 1009.07 1008.15 1007.65 1007.15 1006.59 1005.82 1005.52 1005.02 1005.67 1005.86 1006.13 1006.27 1006.57 1006.85
1021.60 1021.16 1020.49 1019.95 1019.16 1018.29 1017.56 1016.86 1016.16 1015.77 1015.49 1015.43 1015.45 1015.22 1013.32 1010.25 1009.92 1009.99 1009.84 1009.69 1009.49 1009.66 1009.71 1009.36 1009.71 1010.31 1010.42 1010.40 1010.47 1010.67 1010.50 1010.10 1008.41 1007.84 1006.79 1006.89 1005.92 1004.52 1005.01 1005.59 1006.12 1006.06 1006.00 1006.16 1006.13
1021.61 1021.05 1020.41 1019.81 1018.95 1017.89 1016.96 1016.32 1015.68 1015.09 1015.24 1015.15 1015.41 1014.73 1012.35 1009.86 1009.71 1008.90 1009.09 1009.44 1009.11 1009.11 1009.24 1009.29 1009.72 1010.75 1010.92 1011.47 1011.83 1011.72 1011.36 1010.68 1009.36 1008.01 1007.77 1007.49 1006.91 1005.42 1005.38 1005.51 1005.75 1005.91 1005.71 1005.53 1005.45
1021.64 1021.22 1020.43 1019.64 1018.66 1017.64 1016.49 1015.63 1015.30 1015.29 1015.28 1014.99 1014.77 1014.60 1011.66 1010.38 1009.41 1008.73 1008.76 1008.97 1009.14 1009.26 1009.56 1009.84 1010.93 1011.59 1012.26 1012.43 1012.76 1012.28 1011.75 1010.88 1010.09 1008.33 1007.96 1007.78 1007.16 1006.03 1005.13 1005.26 1005.77 1005.73 1005.57 1005.13 1005.28
1021.81 1021.00 1020.41 1019.51 1018.41 1017.62 1016.76 1015.59 1015.92 1015.56 1014.89 1014.36 1013.78 1013.10 1011.59 1010.39 1009.28 1008.91 1008.67 1008.98 1009.35 1009.89 1010.56 1010.95 1011.79 1012.22 1012.21 1012.34 1012.13 1012.00 1011.78 1011.22 1009.70 1008.59 1008.57 1007.96 1007.65 1006.54 1005.63 1005.37 1005.38 1005.46 1005.13 1004.86 1004.77
1021.64 1020.98 1020.37 1019.31 1018.20 1017.57 1017.54 1016.94 1017.51 1017.39 1015.41 1013.28 1012.65 1012.38 1011.17 1011.00 1010.53 1009.20 1008.78 1009.39 1009.80 1010.48 1010.95 1011.52 1011.57 1011.31 1011.55 1011.55 1011.63 1011.47 1011.35 1010.67 1009.52 1008.78 1008.54 1008.23 1007.85 1006.86 1006.28 1005.63 1005.12 1004.76 1004.67 1004.19 1003.91
1021.68 1021.18 1020.44 1019.19 1017.99 1017.64 1017.99 1017.05 1016.59 1016.19 1015.84 1012.71 1011.70 1011.16 1010.30 1010.54 1010.22 1009.33 1009.09 1009.47 1010.06 1010.70 1011.23 1011.73 1010.91 1010.66 1010.64 1010.39 1010.82 1010.55 1010.48 1009.94 1009.84 1009.24 1009.01 1008.91 1008.36 1007.61 1006.16 1005.43 1004.66 1003.93 1003.46 1003.34 1003.21
1021.75 1021.35 1020.72 1019.17 1018.11 1018.97 1017.73 1016.60 1016.31 1015.99 1015.43 1012.18 1010.68 1009.36 1009.59 1009.60 1009.49 1008.67 1008.76 1009.46 1010.17 1010.68 1011.16 1011.37 1010.68 1010.49 1010.25 1010.12 1009.76 1009.78 1009.12 1009.53 1009.78 1010.03 1010.38 1009.96 1010.10 1008.71 1007.22 1006.07 1004.97 1004.13 1003.54 1002.98 1002.65
1021.77 1021.38 1020.91 1020.54 1020.52 1019.47 1017.59 1016.69 1016.06 1015.73 1014.33 1010.90 1009.49 1008.40 1008.97 1009.45 1009.15 1008.86 1008.55 1009.19 1010.00 1010.53 1011.13 1011.05 1010.44 1010.02 1009.84 1009.09 1009.09 1009.21 1008.95 1009.77 1010.23 1010.89 1011.05 1010.82 1010.76 1009.16 1008.09 1006.91 1005.44 1004.44 1003.84 1003.56 1004.01
1021.62 1021.24 1021.06 1020.70 1020.86 1018.59 1017.56 1016.83 1016.26 1015.89 1012.91 1010.32 1009.08 1008.91 1009.32 1009.30 1009.15 1009.03 1009.02 1009.32 1009.85 1010.57 1010.91 1010.83 1009.91 1009.54 1008.69 1008.17 1008.46 1008.91 1009.54 1010.54 1011.64 1012.11 1012.39 1011.83 1011.50 1010.34 1008.97 1008.04 1006.50 1005.14 1003.92 1003.72 1003.61
1021.35 1020.89 1021.03 1020.76 1019.33 1018.23 1017.66 1017.14 1016.72 1015.00 1012.16 1010.78 1009.71 1009.56 1009.78 1009.85 1009.69 1009.57 1009.80 1010.18 1010.72 1011.34 1011.58 1010.80 1009.95 1008.93 1008.47 1008.33 1008.55 1009.47 1010.99 1012.37 1013.52 1013.95 1013.68 1012.10 1011.71 1010.63 1008.67 1007.74 1006.90 1005.96 1004.86 1004.40 1004.16
1020.87 1020.28 1019.73 1019.03 1018.55 1018.35 1018.07 1017.62 1016.42 1014.07 1012.46 1011.03 1010.27 1010.24 1010.74 1010.63 1010.30 1010.22 1010.61 1011.06 1011.16 1011.50 1011.92 1011.68 1010.46 1009.29 1008.64 1008.64 1008.91 1009.90 1011.30 1013.04 1014.26 1015.08 1013.98 1012.34 1011.32 1009.47 1008.15 1007.34 1006.84 1006.14 1005.33 1004.64 1004.53
1020.59 1020.04 1019.60 1017.89 1018.07 1018.64 1018.34 1017.71 1015.92 1014.11 1012.75 1011.79 1011.28 1011.62 1012.03 1011.79 1011.48 1011.22 1011.62 1011.97 1011.67 1011.61 1012.03 1011.91 1010.91 1009.59 1008.99 1008.74 1009.12 1010.47 1011.69 1012.86 1014.05 1014.96 1014.70 1012.97 1011.14 1009.35 1008.13 1007.30 1006.69 1006.08 1005.79 1005.52 1005.17
1021.54 1020.97 1019.22 1017.39 1017.69 1018.26 1018.47 1017.42 1015.56 1013.72 1012.66 1012.22 1012.51 1012.69 1013.04 1012.88 1012.48 1012.33 1012.57 1012.45 1012.20 1011.90 1011.67 1012.31 1011.81 1010.66 1009.83 1009.49 1009.91 1010.54 1011.85 1013.25 1014.61 1015.59 1015.27 1013.58 1012.28 1010.77 1009.24 1008.34 1007.82 1007.39 1007.14 1006.75 1006.10
1021.91 1020.66 1017.60 1017.30 1017.67 1018.29 1018.65 1017.22 1015.28 1013.36 1012.66 1012.62 1013.04 1013.44 1013.79 1013.90 1013.57 1013.49 1013.41 1012.96 1012.65 1012.40 1012.26 1012.84 1013.05 1012.24 1011.29 1011.63 1011.71 1011.82 1013.08 1014.16 1015.27 1015.83 1015.74 1014.71 1012.87 1011.15 1010.41 1009.53 1009.09 1008.84 1008.72 1008.10 1007.63
1021.97 1020.55 1017.88 1017.51 1018.43 1018.92 1018.33 1016.64 1015.04 1013.72 1012.96 1012.98 1013.23 1013.82 1014.25 1014.41 1014.40 1014.21 1014.29 1013.96 1013.48 1013.25 1013.53 1013.96 1014.42 1014.35 1013.67 1012.81 1012.50 1013.02 1014.23 1014.80 1016.02 1016.47 1016.34 1015.54 1012.71 1011.10 1010.94 1010.72 1010.36 1010.13 1009.51 1008.98 1008.43
1021.99 1020.42 1018.10 1017.80 1018.84 1019.09 1017.75 1016.39 1015.20 1014.23 1013.59 1013.45 1013.80 1014.12 1014.49 1014.91 1015.17 1014.98 1015.00 1014.72 1014.11 1014.28 1014.74 1014.75 1015.46 1015.57 1014.64 1014.12 1013.59 1014.11 1014.75 1015.05 1015.83 1016.40 1016.46 1015.93 1013.27 1011.13 1011.52 1011.35 1010.93 1010.83 1010.22 1009.77 1008.98
1022.11 1021.15 1019.53 1018.90 1019.17 1018.61 1017.76 1016.53 1015.40 1014.23 1013.90 1013.82 1014.06 1014.34 1014.87 1015.30 1015.66 1015.88 1015.62 1015.36 1015.21 1015.35 1015.36 1015.24 1016.35 1016.48 1016.26 1015.73 1015.50 1015.34 1015.28 1015.28 1015.63 1016.41 1016.37 1015.77 1014.26 1012.71 1012.70 1012.77 1012.49 1012.15 1011.68 1011.12 1010.65
1022.25 1021.20 1020.07 1019.78 1019.26 1018.50 1017.71 1016.82 1015.74 1014.83 1014.35 1014.32 1014.55 1014.84 1015.29 1015.88 1016.35 1016.91 1016.71 1016.34 1015.96 1016.06 1016.15 1016.72 1017.27 1017.10 1016.59 1016.09 1015.73 1015.51 1015.23 1015.14 1015.51 1015.59 1016.06 1015.36 1015.05 1014.20 1013.96 1014.14 1013.82 1013.30 1012.52 1011.78 1011.06
1021.85 1021.23 1020.22 1019.54 1018.89 1018.50 1017.94 1016.89 1016.00 1015.33 1015.09 1015.11 1015.21 1015.52 1015.80 1016.36 1016.66 1017.04 1017.15 1017.20 1017.12 1017.01 1017.38 1017.85 1018.10 1018.00 1017.48 1016.74 1016.26 1015.69 1015.02 1014.74 1014.83 1015.23 1015.62 1015.47 1015.23 1015.45 1014.95 1014.74 1014.34 1014.26 1013.67 1013.07 1012.46
1021.46 1020.80 1020.41 1019.90 1019.13 1018.71 1018.07 1017.10 1016.30 1015.84 1015.97 1015.80 1015.73 1016.20 1016.68 1016.91 1016.95 1017.02 1017.19 1017.44 1017.56 1017.80 1018.23 1018.67 1018.96 1019.09 1018.45 1017.61 1016.86 1016.14 1014.93 1014.71 1014.87 1015.52 1015.80 1015.95 1016.34 1015.93 1015.66 1015.47 1015.45 1015.16 1014.64 1013.98 1013.28
Wind_Speed
14 14 15 15 15 16 17 18 17 17 17 18 17 17 17 16 16 2 7 11 6 1 2 4 2 4 4 1 0 3 5 3 5 3 7 8 6 1 1 3 5 3 5 3 19
14 15 16 17 17 17 17 18 18 18 17 17 17 16 15 14 3 6 12 5 8 3 1 2 3 3 3 1 1 5 4 8 8 5 7 10 3 3 5 4 4 2 3 15 21
15 16 17 18 19 17 18 19 19 19 17 17 16 15 13 8 5 6 2 7 6 6 1 0 0 1 1 0 2 5 6 5 8 11 6 7 10 9 5 4 10 10 15 15 18
16 17 18 19 20 19 19 20 20 19 18 17 15 14 11 2 1 3 4 5 6 3 2 1 1 2 2 2 1 1 8 4 7 4 3 5 4 2 10 11 13 10 21 16 20
16 18 19 20 20 19 19 20 21 20 18 16 13 11 4 3 9 4 6 4 4 4 2 3 2 2 1 3 4 3 3 4 6 11 7 3 10 5 9 9 10 11 14 16 18
17 19 20 21 21 20 19 20 20 19 17 14 12 5 2 3 3 2 6 2 2 3 1 4 5 6 3 2 2 3 5 9 7 7 5 4 6 5 9 6 12 15 16 16 17
16 18 20 21 21 21 21 21 21 20 17 12 8 2 0 13 4 4 6 5 3 4 2 4 3 2 1 5 2 4 7 9 4 3 8 3 12 7 5 8 13 15 18 16 15
17 19 20 22 23 23 23 23 23 20 12 7 3 1 8 4 1 5 2 7 6 6 4 7 5 3 1 3 9 5 4 5 7 6 7 4 13 17 5 10 10 16 15 15 16
18 19 21 23 24 25 25 26 21 7 3 5 1 2 10 10 3 5 7 4 3 1 4 2 4 2 7 4 6 7 3 3 9 6 4 1 9 11 5 8 10 11 15 16 16
18 19 22 24 25 26 28 21 6 2 2 3 2 3 5 5 5 3 5 3 1 4 6 7 6 4 5 6 3 3 5 5 7 7 3 5 8 10 6 4 3 8 10 16 14
19 20 23 24 26 25 16 4 7 5 2 5 3 5 5 8 5 3 1 4 3 7 1 3 5 4 8 6 6 3 3 6 12 9 4 5 6 12 10 6 9 7 9 14 15
19 21 24 26 27 25 3 5 2 8 11 8 12 7 8 3 5 5 1 3 2 1 2 6 5 7 5 5 6 6 5 7 7 5 2 7 10 8 8 8 8 10 8 13 16
17 19 23 28 30 4 3 4 7 5 2 9 5 5 5 10 7 7 5 3 2 1 0 3 7 10 5 7 4 5 5 5 6 5 4 7 9 7 8 6 6 10 11 4 12
16 18 21 32 6 6 6 9 7 1 5 6 4 6 5 5 3 7 6 5 1 4 4 5 4 1 4 5 3 2 4 2 5 6 2 3 5 7 10 14 10 9 14 8 11
15 16 16 13 5 4 6 11 9 5 3 1 2 1 2 6 2 5 2 4 3 3 3 8 5 4 7 5 0 7 2 3 3 4 3 8 6 10 9 16 20 12 9 11 14
15 16 16 2 2 8 9 10 4 6 3 2 3 3 3 1 4 2 2 3 1 2 1 7 4 5 8 5 2 3 3 7 5 3 5 5 4 8 6 6 12 8 13 11 9
16 18 11 2 5 5 7 4 6 3 5 2 2 3 2 2 2 3 3 2 3 3 5 7 4 6 2 1 3 6 8 5 7 7 5 2 3 8 11 9 6 8 11 11 7
17 21 4 6 3 4 4 6 2 2 4 4 4 3 4 5 4 4 4 0 2 3 1 1 8 3 6 2 5 2 7 7 2 2 6 4 2 5 5 9 9 7 5 7 10
15 4 4 4 7 3 5 4 5 2 5 6 3 8 6 6 2 2 3 2 2 7 6 3 5 5 3 3 4 2 3 2 6 2 2 4 7 8 6 9 9 11 8 8 8
4 5 5 1 7 5 6 5 4 4 3 4 4 3 5 7 6 5 4 4 5 2 3 2 4 3 6 3 6 6 3 5 5 1 4 5 5 6 7 9 8 7 10 11 11
4 4 4 7 3 6 4 6 5 5 4 5 1 3 3 4 2 4 5 1 7 6 7 1 3 8 4 6 3 7 6 5 4 3 4 3 7 4 4 9 8 9 9 10 10
1 1 2 2 5 1 3 5 5 4 4 5 5 4 3 4 4 3 5 6 11 5 4 3 4 2 3 8 3 6 3 5 5 6 1 2 9 2 6 7 6 8 7 8 8
1 3 3 4 3 2 5 4 2 3 2 1 3 2 1 1 3 3 4 5 9 7 4 4 3 4 10 7 7 6 3 1 3 3 3 2 9 2 9 9 10 5 7 8 10
3 1 4 4 1 5 2 3 3 5 2 2 3 3 3 2 4 3 7 5 5 5 7 5 3 6 7 6 2 4 5 3 3 3 4 6 9 16 9 8 9 11 11 10 9
2 4 3 3 4 4 3 2 2 3 2 4 3 2 3 1 3 2 3 6 4 10 5 5 1 1 4 5 2 3 6 3 5 7 5 7 6 11 7 8 8 9 13 15 16
4 2 3 1 2 6 2 3 5 0 2 1 2 3 2 3 2 3 2 1 2 5 4 4 1 1 3 3 5 3 9 8 3 1 3 5 3 7 7 8 16 15 16 17 17
2 2 3 2 2 4 4 3 1 2 4 4 1 5 6 2 2 2 3 3 4 2 1 1 3 3 5 3 5 6 5 2 2 6 2 6 2 4 8 12 11 12 13 14 15
Wind_Direction
359 355 350 346 342 344 341 338 333 328 326 324 323 320 317 320 314 170 249 223 171 224 110 323 22 355 71 98 161 115 72 245 247 269 261 296 73 359 337 207 231 196 175 180 144
360 352 347 346 341 342 337 334 329 327 325 324 322 319 317 330 301 246 247 236 239 146 128 12 334 360 16 230 141 99 133 227 216 232 284 308 338 188 193 174 267 162 76 115 149
1 346 347 343 339 338 335 331 326 324 324 323 321 317 318 325 328 257 338 213 178 184 118 53 273 54 43 284 206 160 193 216 264 245 232 266 293 185 176 254 229 170 160 146 164
353 343 346 341 336 335 334 326 321 320 322 320 321 314 316 280 99 297 85 143 145 145 142 150 82 76 22 312 289 287 244 220 274 268 260 249 265 203 175 212 217 181 168 156 172
345 343 343 339 332 331 329 320 315 314 318 317 314 312 309 357 253 273 117 115 125 115 200 153 89 101 313 254 307 208 283 278 261 289 253 302 253 242 235 257 156 150 181 191 177
342 342 339 335 329 329 325 315 307 306 311 309 302 310 300 302 262 293 132 91 246 158 191 158 180 197 243 265 152 262 276 284 287 274 253 248 265 171 286 136 155 168 194 202 201
340 336 336 331 327 326 321 313 307 305 302 293 286 265 328 240 131 87 166 207 189 194 222 218 182 133 205 317 233 280 342 328 302 323 301 225 304 230 197 165 169 188 196 205 213
338 334 335 330 327 323 319 315 309 301 288 260 219 246 253 246 334 305 206 287 245 225 234 242 147 206 175 319 1 7 49 10 293 357 301 115 267 280 118 153 196 202 193 208 221
337 335 334 330 326 324 319 316 309 312 179 146 161 99 272 313 246 227 150 219 302 243 227 276 101 71 16 64 4 6 291 318 315 318 277 131 286 283 102 188 200 204 211 212 227
338 332 333 328 326 324 323 308 272 109 201 196 245 335 284 326 309 282 178 159 247 346 6 43 46 44 31 60 207 289 334 313 280 298 352 321 286 302 314 357 139 245 229 220 210
335 336 332 328 326 325 338 6 9 347 95 229 253 272 276 311 305 314 150 99 54 49 14 6 60 242 239 207 218 268 267 268 282 270 291 338 303 302 308 342 307 230 233 226 215
336 336 332 329 324 322 295 51 63 261 304 246 242 254 266 64 314 314 78 114 98 273 358 8 263 249 242 218 218 230 268 269 278 267 273 349 292 273 288 260 234 277 221 217 221
334 334 334 327 321 10 311 83 315 330 306 296 206 202 229 140 211 256 144 132 135 309 356 174 252 332 301 294 220 232 204 256 231 311 29 341 321 319 293 255 270 261 252 207 212
331 333 339 330 52 331 301 320 331 250 36 277 274 267 151 164 267 210 172 136 90 207 212 233 291 310 309 272 209 289 239 262 314 42 312 42 282 328 322 314 295 324 339 295 209
326 331 341 345 291 313 305 327 314 61 21 186 180 131 124 140 300 8 194 56 209 227 93 263 297 333 326 252 340 232 51 29 358 82 44 346 59 275 323 348 341 330 359 15 303
322 326 338 10 284 251 310 310 51 44 281 335 122 164 97 315 326 68 114 63 151 247 224 241 266 235 219 228 211 309 27 42 54 51 38 288 104 297 320 305 330 348 16 3 9
320 314 316 231 243 328 318 35 44 124 332 304 226 154 142 240 248 136 160 173 164 42 354 324 306 288 265 283 22 73 49 356 1 13 219 323 45 241 290 290 276 350 18 10 359
319 311 258 213 243 358 11 51 153 315 288 335 356 78 68 356 279 176 118 290 247 90 95 79 339 333 321 247 187 76 135 147 218 259 269 300 227 254 266 270 258 254 332 19 13
321 327 289 264 189 127 73 83 211 233 288 339 34 60 0 335 88 44 73 325 281 175 187 142 278 308 349 350 101 17 3 189 103 346 32 279 295 325 320 349 350 358 20 350 7
360 346 273 143 155 70 76 229 240 237 333 45 80 41 26 349 40 37 5 320 329 355 152 360 324 346 308 28 11 90 168 22 8 7 295 290 285 236 313 321 324 353 351 357 350
28 1 281 158 82 49 150 237 283 294 37 67 94 66 61 19 6 42 4 357 349 344 68 61 100 298 4 32 323 6 12 37 113 117 183 294 273 266 306 298 306 339 343 340 337
75 64 311 58 57 10 174 206 303 316 350 29 92 77 86 37 30 58 61 4 336 333 38 352 126 354 284 303 319 66 82 104 104 299 325 174 275 257 357 328 330 318 8 340 334
119 263 319 89 149 259 279 284 270 307 304 76 101 73 335 84 104 39 32 336 2 42 50 350 13 18 348 351 13 50 37 70 127 75 227 120 273 307 28 354 338 329 32 360 349
91 89 322 49 129 146 218 268 304 316 220 79 119 100 83 37 26 40 355 1 356 29 37 75 100 150 196 220 203 313 325 280 149 145 223 224 275 309 3 12 3 1 0 357 350
115 239 207 201 264 187 158 299 315 26 23 40 39 99 159 156 65 92 341 327 1 354 39 74 110 260 250 256 276 252 280 240 212 238 186 264 262 286 11 17 12 9 6 8 7
154 163 349 179 5 119 142 243 192 184 54 16 139 48 115 128 155 163 161 3 289 344 48 1 269 349 270 2 341 280 273 286 303 3 281 291 287 353 25 33 28 17 10 8 2
269 291 121 304 66 104 207 255 167 80 347 47 93 97 76 116 202 235 207 194 210 202 298 132 128 69 253 325 330 319 273 282 307 30 301 57 280 324 34 42 21 4 5 359 356